Regional Weather Roundup
Issued by NWS Jackson, KY

Home | Current Version | Previous Version | Graphics & Text | Print | Product List | Glossary On
Versions: 1 2 3 4 5 6 7 8 9 10 11 12 13 14 15 16 17 18 19 20 21 22 23 24 25 26 27 28 29 30 31 32 33 34 35 36 37 38 39 40 41 42 43 44 45 46 47 48 49 50
000
ASUS43 KJKL 230810
RWRJKL

EAST KENTUCKY HOURLY WEATHER ROUNDUP
NATIONAL WEATHER SERVICE JACKSON KY
400 AM EDT SAT JUL 23 2016

NOTE: "FAIR" INDICATES FEW OR NO CLOUDS BELOW 12,000 FEET WITH
NO SIGNIFICANT WEATHER AND/OR OBSTRUCTIONS TO VISIBILITY.

* THESE REPORTS ARE NOT UNDER NWS QUALITY CONTROL AND MAY NOT
  REPORT WEATHER SUCH AS PRECIPITATION AND FOG.

KYZ079-080-083-085-087-088-110-112-115-119-120-230900
...EASTERN KENTUCKY...

CITY           SKY/WX    TMP DP  RH WIND       PRES   REMARKS
JACKSON        CLOUDY    70  68  93 CALM      30.07F
LONDON         CLOUDY    73  69  87 CALM      30.05F
SOMERSET*      MOCLDY    70  70 100 CALM      30.05F FOG
MONTICELLO*    CLOUDY   N/A N/A N/A N12       30.05F HAZE
WILLIAMSBURG*  CLOUDY    72  72 100 CALM      30.05F
MIDDLESBORO*   CLOUDY    74  72  91 CALM      30.05F
HARLAN APT*    PTSUNNY   72  70  94 CALM      30.07F
PIKE CO APT*     N/A     70  70 100 CALM      30.07F
MOREHEAD APT*  FOG       70  68  94 SE6       30.06F VSB 1
ASHLAND*       PTCLDY    70  68  94 CALM      30.01F
$$

KYZ035-036-041-042-044-050-067-078-099-230900
...CENTRAL KENTUCKY...

CITY           SKY/WX    TMP DP  RH WIND       PRES   REMARKS
MT STERLING*   PTCLDY    70  70 100 S3        30.06S FOG
FLEMING/MASON* CLEAR     69  69  99 S5        30.05S
DANVILLE*      CLOUDY    70  70 100 CALM      30.05F
RICHMOND*      CLOUDY    70  68  94 CALM      30.04F
LEXINGTON      CLEAR     71  68  90 SE3       30.04F
FRANKFORT      CLEAR     72  69  90 CALM      30.02F
LOUISVILLE     PTCLDY    75  71  87 SE3       30.01S
LEBANON*         N/A     72  72 100 E3        30.03F FOG
GLASGOW*       CLEAR     73  73 100 CALM      30.01S
BOWLING GREEN  CLEAR     75  73  93 CALM      30.01S
$$

KYZ091>093-OHZ055-061-077-WVZ005-015-034-035-042-230900
...SOUTHERN OHIO/WEST VIRGINIA...

CITY           SKY/WX    TMP DP  RH WIND       PRES   REMARKS
COVINGTON      CLEAR     71  71 100 CALM      30.03S
COLUMBUS       CLEAR     71  69  93 CALM      30.01S
DAYTON         CLEAR     72  71  97 SW7       30.04S
WILMINGTON     CLEAR     70  68  93 SW6       30.03S
HUNTINGTON     FOG       70  68  93 SW3       30.03F VSB 1/4
CHARLESTON       N/A     69  67  93 CALM      30.04S
PINEVILLE*     CLOUDY    71  67  89 MISG      30.14R FOG
BECKLEY          N/A     67  65  93 CALM      30.13S
BLUEFIELD        N/A     67  63  87 W5        30.15F
LOGAN CO APT*    N/A     70  70 100 CALM      30.07R FOG
$$

VAZ002-007-008-TNZ017-027-036-066-071-230900
...SOUTHWEST VIRGINIA/EAST TENNESSEE...

CITY           SKY/WX    TMP DP  RH WIND       PRES   REMARKS
WISE*            N/A     73  59  60 CALM      30.15S
JONESVILLE*      N/A     73  72  94 CALM      30.08S
ABINGDON*        N/A     71  67  88 CALM      30.10S
BRISTOL        PTCLDY    71  68  90 NE3       30.07S
MORRISTOWN*    PTSUNNY   75  72  88 CALM      30.04S
SEVIERVILLE*   SUNNY     73  70  88 SE3       30.02S
KNOXVILLE      CLOUDY    80  71  74 CALM      30.01
OAK RIDGE      CLOUDY    79  73  82 CALM      30.04R
CROSSVILLE     CLOUDY    75  73  93 CALM      30.08S FOG
NASHVILLE      CLOUDY    78  72  81 NW6       30.01S
$$

...KEY TO REMARKS...
VSB - VISIBILITY IN MILES
WCI - WIND CHILL INDEX
HX  - HEAT INDEX

$$



USA.gov is the U.S. government's official web portal to all federal, state and local government web resources and services.